This demonstration page uses our WeatherBlox Daily Observations layout. Learn more.

Left ArrowRight Arrow

34.16533, -84.80231

Hourly Observations for October 2, 2020

Temp ( °F °C ) Dew Point ( °F °C ) Humidity (%) Winds ( mph kmh ) Pressure ( in mb ) Visibility ( mi km ) Precip ( " mm )
12:53 am 00:53 Clear 50 10 47 8.3 89 89 S 3 6 30.06 1018 10 16 0.00 0.00
1:53 am 01:53 Clear 50 10 46 7.8 86 86 Calm 30.07 1018 10 16 0.00 0.00
2:53 am 02:53 Clear 50 10 46 7.8 86 86 Calm 30.07 1018 10 16 0.00 0.00
3:53 am 03:53 Clear 47 8.3 44 6.7 90 90 Calm 30.07 1018 10 16 0.00 0.00
4:53 am 04:53 Clear 47 8.3 44 6.7 90 90 Calm 30.07 1018 10 16 0.00 0.00
5:53 am 05:53 Clear 47 8.3 44 6.7 90 90 Calm 30.08 1019 10 16 0.00 0.00
6:53 am 06:53 Clear 46 7.8 43 6.1 89 89 Calm 30.09 1019 10 16 0.00 0.00
7:53 am 07:53 Sunny 46 7.8 43 6.1 89 89 Calm 30.12 1020 10 16 0.00 0.00
8:53 am 08:53 Sunny 52 11.1 45 7.2 77 77 Calm 30.14 1021 10 16 0.00 0.00
9:53 am 09:53 Sunny 56 13.3 44 6.7 65 65 Calm 30.15 1021 10 16 0.00 0.00
10:53 am 10:53 Sunny 60 15.6 45 7.2 58 58 VRB 3 6 30.15 1021 10 16 0.00 0.00
11:53 am 11:53 Sunny 65 18.3 42 5.6 43 43 NNE 9 15 30.14 1021 10 16 0.00 0.00
12:53 pm 12:53 Sunny 68 20 38 3.3 33 33 N 9 15 30.13 1020 10 16 0.00 0.00
1:53 pm 13:53 Sunny 69 20.6 37 2.8 31 31 VRB 7 11 30.11 1020 10 16 0.00 0.00
2:53 pm 14:53 Sunny 70 21.1 37 2.8 30 30 N 9 15 30.09 1019 10 16 0.00 0.00
3:53 pm 15:53 Sunny 70 21.1 38 3.3 31 31 N 5 7 30.08 1019 10 16 0.00 0.00
4:53 pm 16:53 Sunny 69 20.6 38 3.3 32 32 VRB 3 6 30.07 1018 10 16 0.00 0.00
5:53 pm 17:53 Sunny 68 20 40 4.4 36 36 N 7 11 30.07 1018 10 16 0.00 0.00
6:53 pm 18:53 Sunny 63 17.2 44 6.7 50 50 NNW 5 7 30.09 1019 10 16 0.00 0.00
7:53 pm 19:53 Clear 54 12.2 47 8.3 77 77 Calm 30.10 1019 10 16 0.00 0.00
8:53 pm 20:53 Clear 50 10 46 7.8 86 86 S 3 6 30.11 1020 10 16 0.00 0.00
9:53 pm 21:53 Clear 49 9.4 46 7.8 90 90 Calm 30.13 1020 10 16 0.00 0.00
10:53 pm 22:53 Clear 48 8.9 45 7.2 89 89 Calm 30.13 1020 10 16 0.00 0.00
11:53 pm 23:53 Clear 48 8.9 45 7.2 89 89 Calm 30.14 1021 10 16 0.00 0.00

Powered by AerisWeather